ARIANE 5 R/B, 33057

Orbit data source: Space-Track

ARIANE 5 R/B, 33057 is space debris in HEO originally from a launch on Thu, 12 Jun 2008 UTC launched from the French Guiana (FRGUI). Debris objects in space refer to the collection of defunct objects orbiting the Earth. Examples of debris include non-operational satellites, rocket bodies, and fragments generated from explosions, collisions, or faulty payload assembly.

Loading next visibility...
ARIANE 5 R/B details
Identifier
33057, 2008-030C
Orbit
HEO
Last TLE update10 hours ago
Origin
Flag of FRArianespace (FR)
ManufacturerEADS/LV
MissionSpacecraft
Bus & MotorESC-A, Unknown motor
Mass~5,000 kg wet, ~5,000 kg dry
Launch date (UTC)
2008-06-12 (17 years ago)
Launch vehicleUnknown
Launch site
French Guiana (FRGUI)
Object type
Payload
Rocket body
Debris
Shape & HBRCyl + 1 Nozzle, 7 m
Radar Cross Section41.627 m², Large (>1 m²)

Expand to show TLE details & history

TLE from 10 hours ago
0 ARIANE 5 R/B
1 33057U 08030C   24361.17027742  .00001886  00000-0  99049-3 0  9992
2 33057   1.5788 270.9717 7050612 101.1178 339.4715  2.54928791145337
Epoch: 2024-12-26T04:05Z
Definitive object data (Epoch: 2024-12-26T04:05:11.969Z)
Latitude0.00001°
Longitude115.77939°
Altitude6,598.554 km
Speed6.619 km/s
True Right ascension18h 08m 55s
True Declination0° 00' 00"
Sunlit
Object was in daylight at TLE epoch
Visualization TLE readout
Latitude1.57567°
Longitude-148.73084°
Altitude324.055 km
Speed10.066 km/s
Apparent Right ascension00h 53m 00s
Apparent Declination-18° 38' 30"
Sunlit
Object is in daylight
Visualization observer readout
Local Sidereal Time13:23:17
Azimuth19.248° NNE
Elevation-67.746°
Doppler factor1
Orbital elements
Apogee altitude32,226.018 km
Perigee altitude299.549 km
Semi-major axis22,640.921 km
Eccentricity0.7050612
Inclination1.5788°
RAAN270.9717°
Arg. of periapsis101.1178°
True anomaly260.11836°
Mean anomaly339.4715°
Eccentric anomaly307.36417°
Mean motion0.63709 °/min
BSTAR0.00099049
Orbital period565.07 mins
Loading maneuver chart data...
Loading historical data...
Loading historical data...
Loading historical data...
Loading historical data...
Loading historical data...
Loading historical data...
Loading historical data...

ARIANE 5 R/B Visibility forecast

Observer location: undefined°, undefined

Span
Click to sort rows by Start time (UTC) header in descending order
Start Az.
Max El. time (UTC)
Max El. Az.
Max El.
End time (UTC)
End Az.
282 mins2024-12-27 09:19:30.790Z217.127° SW2024-12-27 13:25:30.790Z182.128° SSW33.477°2024-12-27 14:01:30.790Z187.22° SSW
|